Location: Hackbridge
(51.3833°N, 0.1500°W)
Time: 08:10:44
(UTC+00:00)

Cosmos 1726 - Pass Details

Date: 13 October 2019
Orbit: 483 x 500 km, 82.5° (Epoch: 17 November)

Event Time Altitude Azimuth Distance (km) Brightness Sun altitude
Rises 18:21:07 0° 165° (SSE) 2,556 5.6 -11.5°
Reaches altitude 10° 18:23:21 10° 155° (SSE) 1,677 4.5 -11.8°
Maximum altitude 18:26:37 31° 92° (E) 880 2.8 -12.3°
Drops below altitude 10° 18:29:54 10° 29° (NNE) 1,683 4.5 -12.9°
Sets 18:32:09 0° 19° (NNE) 2,568 5.6 -13.2°
